Regional Weather Roundup
Issued by NWS State College, PA

Home | Current Version | Previous Version | Text Only | Print | Product List | Glossary On
Versions: 1 2 3 4 5 6 7 8 9 10 11 12 13 14 15 16 17 18 19 20 21 22 23 24 25 26 27 28 29 30 31 32 33 34 35 36 37 38 39 40 41 42 43 44 45 46 47 48 49 50
280
ASUS41 KCTP 302010
RWRCTP

REGIONAL WEATHER ROUNDUP
NATIONAL WEATHER SERVICE STATE COLLEGE PA
400 PM EDT THU MAR 30 2017

Note: "fair" indicates few or no clouds below 12,000 feet with no
significant weather and/or obstructions to visibility.

* = STATION THAT DOES NOT REPORT PRECIPITATION /E.G. RAIN...SNOW...ETC/
    THUNDER OR FOG.

PAZ002>004-007>009-013>016-020>023-029>032-302100-
WESTERN PENNSYLVANIA

CITY           SKY/WX    TMP DP  RH WIND       PRES   REMARKS
ERIE           LGT RAIN  41  36  82 SE12G20   29.89F
MEADVILLE      CLOUDY    40  35  83 E14G23    29.86F
FRANKLIN*      CLOUDY    39  30  70 E12       29.93R
NEW CASTLE     CLOUDY    49  38  65 E10       29.88F
BEAVER COUNTY  CLOUDY    48  41  76 E8G18     29.84F
BUTLER*        CLOUDY    46  41  81 E9        29.87F
PITTSBURGH INT CLOUDY    54  43  66 E14       29.83F
PITTSBURGH     CLOUDY    53  41  63 E15       29.84F
INDIANA*       CLOUDY    46  36  66 SE17G24   29.95F
LATROBE        PTSUNNY   50  39  66 SE12G23   29.89F
WASHINGTON CO* MOSUNNY   57  46  67 E8        29.84F
$$

PAZ004>006-010>012-017>019-024>028-033>037-041-042-045-046-049>053-302100-
CENTRAL PENNSYLVANIA

CITY           SKY/WX    TMP DP  RH WIND       PRES   REMARKS
BRADFORD       FRZ RAIN  33  31  92 E14G20    29.96F
DUBOIS         CLOUDY    37  31  78 E17       29.90F
CLEARFIELD     LGT RAIN  42  30  62 E10G18    30.01F
JOHNSTOWN      CLOUDY    42  35  76 SE15G22   29.95F
ALTOONA        CLOUDY    44  35  70 SE16G22   30.02F
STATE COLLEGE  CLOUDY    43  27  52 SE8       30.07F
WILLIAMSPORT   CLOUDY    41  32  70 E7        30.12F
SELINSGROVE    CLOUDY    45  30  55 NE8       30.11F
FT INDIANTOWN  CLOUDY    46  27  47 VRB5      30.13F
CAPITAL CITY   LGT RAIN  47  30  51 SE7       30.13F
HARRISBURG     LGT RAIN  46  31  55 SE9       30.13F
YORK           LGT RAIN  46  32  58 E8        30.12F
$$

PAZ038>040-043-044-047-048-054-055-060>062-067>071-302100-
EASTERN PENNSYLVANIA

CITY           SKY/WX    TMP DP  RH WIND       PRES   REMARKS
SCRANTON       CLOUDY    46  25  43 SW3       30.10F
MOUNT POCONO   CLOUDY    42  23  46 E7        30.08F
ALLENTOWN      CLOUDY    48  24  39 SW6       30.15F
QUAKERTOWN*    CLOUDY    46  25  42 CALM      30.16F
READING        CLOUDY    48  29  47 VRB3      30.13F
LANCASTER      CLOUDY    47  30  51 S8        30.14F
COATESVILLE    CLOUDY    46  27  46 CALM      30.15F
POTTSTOWN      CLOUDY    47  25  42 E5        30.16F
BLUE BELL      CLOUDY    46  27  46 CALM      30.15F
DOYLESTOWN     CLOUDY    48  24  39 CALM      30.15F
WILLOW GROVE   NOT AVBL
NORTH PHILA    CLOUDY    51  25  36 VRB3      30.17F
PHILADELPHIA   CLOUDY    52  27  38 CALM      30.17F
$$




USA.gov is the U.S. government's official web portal to all federal, state and local government web resources and services.